(247692) = 2003 BW29 = 2005 NK17

Discovered at Socorro on 2003-01-27 by LINEAR.

Orbit

Orbit type: Main Belt

Note: WebGL enabled browser required.

epoch2023-09-13.0
epoch JD2460200.5
perihelion date2019-07-07.84525
perihelion JD2458672.34525
argument of perihelion (°)105.98472
ascending node (°)300.99852
inclination (°)7.05640
eccentricity0.1157984
perihelion distance (AU)2.3417858
Tisserand w.r.t. Jupiter3.4
ΔV w.r.t. Earth (km/sec)9.8
semimajor axis (AU)2.6484748
mean anomaly (°)349.44386
mean daily motion (°/day)0.22867050
aphelion distance (AU)2.955
period (years)4.31
P-vector [x]0.67597079
P-vector [y]0.62040411
P-vector [z]0.39769614
Q-vector [x]-0.72936622
Q-vector [y]0.64035975
Q-vector [z]0.24075777
absolute magnitude16.58
phase slope0.15
uncertainty0
referenceMPEC 2024-B28
observations used372
oppositions16
arc length (days)8180
first opposition used2001
last opposition used2024
residual rms (arc-secs)0.69
perturbers coarse indicatorM-v
perturbers precise indicator003Ek
first observation date used2001-08-25.0
last observation date used2024-01-17.0
computer nameMPCLINUX
JD of orbit computation2456937.162916
perihelion JD uncertainty (days)1.1789E-04
argument of perihelion uncertainty (°)5.2273E-05
ascending node uncertainty (°)4.4028E-05
inclination uncertainty (°)4.6858E-06
eccentricity uncertainty 4.0925E-08
perihelion distance uncertainty (AU)1.0671E-07
Minimum Orbit Intersection Distances (in AU)
for orbit epoch: 2460200.5, reference: E2024-B28
Mercury2.02723
Venus1.63011
Earth1.36268
Mars0.84023
Jupiter2.39886
Saturn6.58007
Uranus15.6497
Neptune27.48

Observations

383 total observations over interval: 2001 08 25.32991 – 2024 01 17.185063
These data are available for download (format description).

Date (UT) J2000 RA J2000 Dec Magn Location Ref
2001 08 25.32991 23 06 48.05 +02 35 51.0 19.8   704 – Lincoln Laboratory ETS, New Mexico MPS 139646
2001 08 25.34304 23 06 47.41 +02 35 50.4 19.9   704 – Lincoln Laboratory ETS, New Mexico MPS 139646
2001 08 25.35575 23 06 46.71 +02 35 49.4 20.0   704 – Lincoln Laboratory ETS, New Mexico MPS 139646
2001 08 25.36869 23 06 45.98 +02 35 48.8 20.3   704 – Lincoln Laboratory ETS, New Mexico MPS 139646
2001 09 16.32445 22 47 24.16 +01 35 55.4 20.4   704 – Lincoln Laboratory ETS, New Mexico MPS 139646
2001 09 16.35524 22 47 22.59 +01 35 49.8 20.3   704 – Lincoln Laboratory ETS, New Mexico MPS 139646
2001 09 16.37394 22 47 21.57 +01 35 45.4 19.7   704 – Lincoln Laboratory ETS, New Mexico MPS 139646
2001 10 15.249450 22 30 31.588 -00 01 56.88 20.33 V 645 – Apache Point-Sloan Digital Sky Survey MPS 139646
2001 10 15.252922 22 30 31.538 -00 01 57.39 20.95   645 – Apache Point-Sloan Digital Sky Survey MPS 139646
2001 11 18.141200 22 38 49.369 -00 07 40.48 20.94 V 645 – Apache Point-Sloan Digital Sky Survey MPS 139646
2001 11 18.144672 22 38 49.508 -00 07 40.08 21.61   645 – Apache Point-Sloan Digital Sky Survey MPS 139646
2001 12 10.140950 22 58 25.776 +01 12 14.65 21.36 V 645 – Apache Point-Sloan Digital Sky Survey MPS 139646
2001 12 10.144422 22 58 26.015 +01 12 15.83 21.79   645 – Apache Point-Sloan Digital Sky Survey MPS 139646
2003 01 01.45396 08 49 24.43 +18 17 13.9 20.9 V 291 – LPL/Spacewatch II MPS 139646
2003 01 01.47843 08 49 23.31 +18 17 13.5 20.9 V 291 – LPL/Spacewatch II MPS 139646
2003 01 01.50284 08 49 22.21 +18 17 13.3 20.7 V 291 – LPL/Spacewatch II MPS 139646
2003 01 27.25849 08 24 50.68 +18 29 56.4 20.4   704 – Lincoln Laboratory ETS, New Mexico MPS 71913
2003 01 27.27386 08 24 49.69 +18 29 55.9 20.2   704 – Lincoln Laboratory ETS, New Mexico MPS 71913
2003 01 27.30471 08 24 47.58 +18 29 57.1 20.0   704 – Lincoln Laboratory ETS, New Mexico MPS 71913
2003 01 28.23347 08 23 49.94 +18 30 28.5 19.6   704 – Lincoln Laboratory ETS, New Mexico MPS 71913
2003 01 28.24902 08 23 48.93 +18 30 29.3 19.7   704 – Lincoln Laboratory ETS, New Mexico MPS 71913
2003 01 28.26459 08 23 47.95 +18 30 29.9 20.1   704 – Lincoln Laboratory ETS, New Mexico MPS 71913
2003 01 28.27992 08 23 46.93 +18 30 30.0 20.0   704 – Lincoln Laboratory ETS, New Mexico MPS 71913
2003 01 29.18472 08 22 51.13 +18 30 59.4 20.1 V 291 – LPL/Spacewatch II MPS 73346
2003 01 29.20967 08 22 49.53 +18 31 00.4 20.1 V 291 – LPL/Spacewatch II MPS 73346
2003 01 29.23490 08 22 47.92 +18 31 01.2 19.9 V 291 – LPL/Spacewatch II MPS 73346
2003 01 30.23126 08 21 46.63 +18 31 32.1 19.4   644 – Palomar Mountain/NEAT MPS 71913
2003 01 30.23973 08 21 46.02 +18 31 31.4 19.1 R 699 – Lowell Observatory-LONEOS MPS 71913
2003 01 30.25755 08 21 44.89 +18 31 31.5   699 – Lowell Observatory-LONEOS MPS 71913
2003 01 30.27545 08 21 43.82 +18 31 33.3   699 – Lowell Observatory-LONEOS MPS 71913
2003 01 30.29354 08 21 42.54 +18 31 34.0   699 – Lowell Observatory-LONEOS MPS 71913
2003 01 30.30351 08 21 42.13 +18 31 34.0 19.0   644 – Palomar Mountain/NEAT MPS 71913
2003 01 30.36894 08 21 37.94 +18 31 36.3 19.6   644 – Palomar Mountain/NEAT MPS 71913
2005 07 03.40163 21 09 11.19 -16 04 53.9 20.1 V G96 – Mt. Lemmon Survey MPS 137532
2005 07 03.40964 21 09 10.87 -16 04 53.6 20.3 V G96 – Mt. Lemmon Survey MPS 137532
2005 07 03.41764 21 09 10.65 -16 04 53.5 20.2 V G96 – Mt. Lemmon Survey MPS 137532
2005 07 03.42566 21 09 10.33 -16 04 53.5 20.7 V G96 – Mt. Lemmon Survey MPS 137532
2005 07 07.38248 21 06 50.38 -16 04 29.2 20.8 V 691 – Steward Observatory, Kitt Peak-Spacewatch MPS 137532
2005 07 07.39990 21 06 49.68 -16 04 29.4 20.7 V 691 – Steward Observatory, Kitt Peak-Spacewatch MPS 137532
2005 07 07.41732 21 06 48.97 -16 04 29.4 20.7 V 691 – Steward Observatory, Kitt Peak-Spacewatch MPS 137532
2005 09 11.13200 20 16 14.84 -16 37 33.3 20.5 V 691 – Steward Observatory, Kitt Peak-Spacewatch MPS 141693
2005 09 11.14717 20 16 14.54 -16 37 32.7 20.6 V 691 – Steward Observatory, Kitt Peak-Spacewatch MPS 141693
2005 09 11.16233 20 16 14.30 -16 37 32.6 21.0 V 691 – Steward Observatory, Kitt Peak-Spacewatch MPS 141693
2006 12 18.27339 05 39 05.77 +30 21 47.7 18.8   704 – Lincoln Laboratory ETS, New Mexico MPS 192112
2006 12 18.28636 05 39 04.95 +30 21 44.6 19.6   704 – Lincoln Laboratory ETS, New Mexico MPS 192112
2006 12 18.29934 05 39 04.10 +30 21 41.6 19.6   704 – Lincoln Laboratory ETS, New Mexico MPS 192112
2006 12 18.31240 05 39 03.10 +30 21 39.0 19.7   704 – Lincoln Laboratory ETS, New Mexico MPS 192112
2006 12 18.32538 05 39 02.25 +30 21 38.4 19.6   704 – Lincoln Laboratory ETS, New Mexico MPS 192112
2006 12 24.13723 05 32 44.63 +29 59 22.3 19.9 V 691 – Steward Observatory, Kitt Peak-Spacewatch MPS 192112
2006 12 24.14715 05 32 44.01 +29 59 20.2 19.9 V 691 – Steward Observatory, Kitt Peak-Spacewatch MPS 192112
2006 12 24.15707 05 32 43.36 +29 59 17.9 19.9 V 691 – Steward Observatory, Kitt Peak-Spacewatch MPS 192112
2008 03 09.39354 12 54 22.21 -16 10 07.9   691 – Steward Observatory, Kitt Peak-Spacewatch MPS 242041
2008 03 09.41123 12 54 21.50 -16 10 06.8   691 – Steward Observatory, Kitt Peak-Spacewatch MPS 242041
2008 03 09.42892 12 54 20.71 -16 10 05.1   691 – Steward Observatory, Kitt Peak-Spacewatch MPS 242041
2010 07 30.445337 02 14 35.10 +21 17 08.0   C51 – WISE MPS 341700
2010 07 30.57764 02 14 44.02 +21 18 16.6   C51 – WISE MPS 341700
2010 07 30.70995 02 14 52.79 +21 19 25.9   C51 – WISE MPS 341700
2010 07 30.842249 02 15 01.56 +21 20 36.9   C51 – WISE MPS 341700
2010 07 30.974426 02 15 10.34 +21 21 46.1   C51 – WISE MPS 341700
2010 07 30.974553 02 15 10.23 +21 21 45.6   C51 – WISE MPS 341700
2010 07 31.305249 02 15 32.143 +21 24 38.74   C51 – WISE MPS 903746
2010 07 31.437552 02 15 40.884 +21 25 49.73   C51 – WISE MPS 903746
2010 07 31.569856 02 15 49.61 +21 26 57.3   C51 – WISE MPS 341701
2010 07 31.702160 02 15 58.452 +21 28 08.65   C51 – WISE MPS 903746
2010 07 31.834337 02 16 06.96 +21 29 16.1   C51 – WISE MPS 341701
2010 07 31.834464 02 16 06.85 +21 29 16.3   C51 – WISE MPS 341701
2010 07 31.966640 02 16 15.547 +21 30 27.04   C51 – WISE MPS 903746
2010 09 11.03650 02 45 10.50 +26 19 27.8 19.6 R 114 – Engelhardt Observatory, Zelenchukskaya Station MPS 349335
2010 09 11.04044 02 45 10.53 +26 19 29.0 19.6 R 114 – Engelhardt Observatory, Zelenchukskaya Station MPS 349335
2010 09 11.04426 02 45 10.54 +26 19 30.2 19.8 R 114 – Engelhardt Observatory, Zelenchukskaya Station MPS 349335
2010 09 11.04821 02 45 10.59 +26 19 31.1 19.5 R 114 – Engelhardt Observatory, Zelenchukskaya Station MPS 349335
2010 09 11.05212 02 45 10.62 +26 19 32.5 19.9 R 114 – Engelhardt Observatory, Zelenchukskaya Station MPS 349335
2010 10 07.618989 02 39 51.129 +27 36 13.85 19.93 r F51 – Pan-STARRS 1, Haleakala MPS 365305
2010 10 07.630473 02 39 50.696 +27 36 13.98 19.90 r F51 – Pan-STARRS 1, Haleakala MPS 365305
2010 10 09.38815 02 38 44.84 +27 36 34.4 20.3 V 703 – Catalina Sky Survey MPS 353596
2010 10 09.39510 02 38 44.59 +27 36 34.9 21.1 V 703 – Catalina Sky Survey MPS 353596
2010 10 09.40197 02 38 44.37 +27 36 34.3 19.7 V 703 – Catalina Sky Survey MPS 353596
2010 10 09.40894 02 38 44.05 +27 36 34.4 19.4 V 703 – Catalina Sky Survey MPS 353596
2010 10 09.560621 02 38 37.990 +27 36 34.49 20.19 g F51 – Pan-STARRS 1, Haleakala MPS 365305
2010 10 09.572674 02 38 37.482 +27 36 34.36 20.20 g F51 – Pan-STARRS 1, Haleakala MPS 365305
2010 10 30.27566 02 21 02.01 +26 47 45.4 19.4 V 703 – Catalina Sky Survey MPS 355141
2010 10 30.28400 02 21 01.51 +26 47 43.3 19.0 V 703 – Catalina Sky Survey MPS 355141
2010 10 30.29242 02 21 01.08 +26 47 41.7 19.5 V 703 – Catalina Sky Survey MPS 355141
2010 10 30.30086 02 21 00.54 +26 47 40.2 19.2 V 703 – Catalina Sky Survey MPS 355141
2010 11 08.312107 02 12 29.880 +25 59 35.39 19.91 g F51 – Pan-STARRS 1, Haleakala MPS 365305
2010 11 08.322957 02 12 29.258 +25 59 31.66 19.90 g F51 – Pan-STARRS 1, Haleakala MPS 365305
2010 11 14.27327 02 07 19.87 +25 22 05.1 20.0   704 – Lincoln Laboratory ETS, New Mexico MPS 358660
2010 11 14.28604 02 07 19.23 +25 22 00.0 19.5   704 – Lincoln Laboratory ETS, New Mexico MPS 358660
2010 11 14.29880 02 07 18.58 +25 21 54.9 19.7   704 – Lincoln Laboratory ETS, New Mexico MPS 358660
